Location: Newark
(7.0858°N, 171.3717°E)
Time: 13:46:05
(UTC+00:00)

Vanguard 1 Rocket - Pass Details

Date: 28 November 2020
Orbit: 655 x 4222 km, 34.3° (Epoch: 23 January)

Event Time Altitude Azimuth Distance (km) Brightness Sun altitude
Rises 10:13:36 0° 224° (SW) 6,221 12.2 -55.7°
Reaches altitude 10° 10:17:03 10° 222° (SW) 5,584 11.7 -56.5°
Enters shadow 10:31:08 60° 191° (S) 4,053 10.4 -59.5°
